Kalispell, MT

5:29 PM MDT on March 22, 2017 (GMT -0600)
Glacier Park International

Weather History for KGPI - February, 2015

Change the Weather History Date:

Saturday, February 7, 2015

  Actual Average Record
Temperature  
Mean Temperature 40 °F 26 °F  
Max Temperature 45 °F 34 °F 52 °F (1963)
Min Temperature 34 °F 18 °F -27 °F (1936)
Degree Days  
Heating Degree Days 25 39  
Month to date heating degree days 222 273  
Since 1 July heating degree days 4751 5064  
Cooling Degree Days 0 0  
Month to date cooling degree days 0 0  
Year to date cooling degree days 0 0  
Moisture  
Dew Point 37 °F    
Average Humidity 88    
Maximum Humidity 100    
Minimum Humidity 76    
Precipitation  
Precipitation 0.25 in 0.03 in 0.50 in (1904)
Month to date precipitation 0.54 0.24  
Year to date precipitation 2.95 1.57  
Snow  
Snow 0.00 in - - ()
Month to date snowfall 8.1  
Year to date snowfall 38.5  
Since 1 July snowfall 65.0  
Snow Depth 5.00 in    
Sea Level Pressure  
Sea Level Pressure 29.67 in    
Wind  
Wind Speed 7 mph (South)    
Max Wind Speed 16 mph    
Max Gust Speed 21 mph    
Visibility 9 miles    
Events Rain    
T = Trace of Precipitation, MM = Missing Value Source: NWS Daily Summary

Daily Weather History Graph

Daily Weather History Graph

Search for Another Location

Airport or City:

Trip Planner

Search our weather history database for the weather conditions in past years. The results will help you decide how hot, cold, wet, or windy it might be!

Date:

Astronomy

Feb. 07, 2015 Rise Set
Actual Time 7:57 AM MST 5:45 PM MST
Civil Twilight 7:24 AM MST 6:18 PM MST
Nautical Twilight 6:47 AM MST 6:55 PM MST
Astronomical Twilight 6:10 AM MST 7:32 PM MST
Moon 9:53 PM MST (2/7) 9:17 AM MST (2/7)
Length of Visible Light 10h 54m
Length of Day
9h 48m
Waning Gibbous, 87% of the Moon is Illuminated
Feb 7
Waning Gibbous
Feb 11
Last Quarter
Feb 18
New
Feb 25
First Quarter
Mar 5
Full

Hourly Weather History & Observations

Time (MST) Temp. Windchill Dew Point Humidity Pressure Visibility Wind Dir Wind Speed Gust Speed Precip Events Conditions
12:55 AM 42.1 °F 36.6 °F 35.1 °F 76% 29.62 in 10.0 mi SSE 9.2 mph - N/A   Overcast
1:55 AM 43.0 °F 39.5 °F 36.0 °F 76% 29.62 in 10.0 mi South 5.8 mph - N/A   Mostly Cloudy
2:55 AM 39.9 °F 35.1 °F 35.1 °F 83% 29.64 in 10.0 mi South 6.9 mph - N/A   Mostly Cloudy
3:55 AM 41.0 °F - 36.0 °F 82% 29.61 in 10.0 mi Calm Calm - N/A   Overcast
4:55 AM 39.9 °F 36.7 °F 35.1 °F 83% 29.59 in 10.0 mi West 4.6 mph - N/A   Overcast
5:55 AM 37.0 °F - 35.1 °F 93% 29.57 in 10.0 mi Calm Calm - N/A   Overcast
6:55 AM 35.1 °F 32.2 °F 34.0 °F 96% 29.55 in 8.0 mi South 3.5 mph - 0.01 in Rain Light Rain
7:55 AM 35.1 °F 32.2 °F 34.0 °F 96% 29.55 in 10.0 mi NW 3.5 mph - 0.03 in Rain Light Rain
8:55 AM 36.0 °F - 36.0 °F 100% 29.55 in 4.0 mi Calm Calm - 0.05 in Rain Light Rain
9:55 AM 36.0 °F - 35.1 °F 97% 29.56 in 5.0 mi Calm Calm - 0.05 in Rain Light Rain
10:55 AM 37.9 °F 32.7 °F 37.9 °F 100% 29.58 in 4.0 mi SSW 6.9 mph - 0.04 in Rain Light Rain
11:55 AM 37.0 °F 30.4 °F 37.0 °F 100% 29.61 in 8.0 mi SSW 9.2 mph - 0.00 in Rain Light Rain
12:26 PM 39.0 °F 32.3 °F 37.9 °F 96% 29.59 in 6.0 mi South 10.4 mph - 0.02 in Rain Light Rain
12:31 PM 39.0 °F 32.8 °F 37.9 °F 96% 29.59 in 7.0 mi South 9.2 mph - 0.02 in Rain Light Rain
12:52 PM 39.2 °F 31.6 °F 39.2 °F 100% 29.59 in 6.0 mi South 12.7 mph - 0.03 in Rain Light Rain
12:55 PM 39.9 °F 32.9 °F 39.0 °F 97% 29.63 in 6.0 mi South 11.5 mph - 0.03 in Rain Light Rain
1:55 PM 41.0 °F 34.7 °F 39.0 °F 93% 29.66 in 10.0 mi South 10.4 mph - 0.00 in   Overcast
2:55 PM 41.0 °F 36.4 °F 39.0 °F 93% 29.69 in 10.0 mi South 6.9 mph - 0.00 in Rain Light Rain
3:55 PM 41.0 °F 35.8 °F 39.0 °F 93% 29.71 in 10.0 mi South 8.1 mph - 0.00 in Rain Light Rain
4:55 PM 39.0 °F 35.7 °F 37.9 °F 96% 29.74 in 10.0 mi SSW 4.6 mph - 0.02 in Rain Light Rain
5:55 PM 42.1 °F 37.7 °F 39.0 °F 89% 29.75 in 10.0 mi South 6.9 mph - 0.00 in   Overcast
6:55 PM 39.9 °F 34.5 °F 37.9 °F 93% 29.78 in 10.0 mi South 8.1 mph - 0.00 in Rain Light Rain
7:55 PM 39.0 °F 34.0 °F 37.0 °F 93% 29.80 in 10.0 mi SSW 6.9 mph - 0.02 in   Overcast
8:55 PM 41.0 °F 33.9 °F 37.0 °F 86% 29.81 in 10.0 mi SSE 12.7 mph - N/A   Overcast
9:55 PM 41.0 °F 33.9 °F 36.0 °F 82% 29.83 in 10.0 mi SSE 12.7 mph - N/A   Overcast
10:55 PM 41.0 °F 33.9 °F 35.1 °F 79% 29.85 in 10.0 mi SSE 12.7 mph - N/A   Overcast
11:55 PM 41.0 °F 35.8 °F 35.1 °F 79% 29.89 in 10.0 mi South 8.1 mph - N/A   Overcast